User: anonymous   Login
Location: Azul
(36.7830°S, 59.8500°W)
Time: 01:42:50
(UTC-03:00)
Language:

LO-87 - Orbit

View from above orbital plane
View from above orbital plane
View from above satellite
View from above satellite

Ground track
Ground track

The orbit data is extracted from the following two-line orbital elements,

1 41557U 16033B   21295.75799762  .00004453  00000-0  15459-3 0  9999
2 41557  97.3936  29.0362 0013575 138.2682 342.5518 15.30213837300996
Epoch (UTC): 22 October 2021 18:11:30
Eccentricity: 0.0013575
inclination: 97.3936°
perigee height: 466 km
apogee height: 484 km
right ascension of ascending node: 29.0362°
argument of perigee: 138.2682°
revolutions per day: 15.30213837
mean anomaly at epoch: 342.5518°
orbit number at epoch: 30099

The dashed part of the orbit path shows where the satellite is in the earth's shadow,  

DLR